Location: Napier
(39.4830°S, 176.9170°E)
Time: 03:19:02
(UTC+12:00)

Cosmos 1633 - Pass Details

Date: 15 August 2020
Orbit: 465 x 480 km, 82.5° (Epoch: 19 September)

Event Time Altitude Azimuth Distance (km) Brightness Sun altitude
Rises 18:19:24 0° 193° (SSW) 2,567 6.3 -9.3°
Reaches altitude 10° 18:21:33 10° 198° (SSW) 1,676 5.4 -9.7°
Maximum altitude 18:25:07 52° 274° (W) 607 3.5 -10.4°
Drops below altitude 10° 18:28:36 10° 351° (N) 1,640 5.5 -11.0°
Sets 18:30:42 0° 355° (N) 2,505 6.4 -11.4°
